ARIANE 42P DEB, 44507

Orbit data source: Space-Track

ARIANE 42P DEB, 44507 is space debris in LEO originally from a launch on Mon, 10 Aug 1992 UTC launched from the French Guiana (FRGUI). Debris objects in space refer to the collection of defunct objects orbiting the Earth. Examples of debris include non-operational satellites, rocket bodies, and fragments generated from explosions, collisions, or faulty payload assembly.

Loading next visibility...
Identifier
44507, 1992-052E
Orbit
LEO
Last TLE update
8 hours ago
Origin
Manufacturer
ArianeGroup
Mission
Spacecraft
Bus & Motor
Unknown
Mass
Unknown
Launch date (UTC)
1992-08-10 (33 years ago)
Launch vehicle
Unknown
Launch site
French Guiana (FRGUI)
Object type
Payload
Rocket body
Debris
Shape & HBR
Unknown
Radar Cross Section
Small (<0.1 m²)

Expand to show TLE details & history

TLE from 8 hours ago
0 ARIANE 42P DEB
1 44507U 92052E   25183.55707274  .00001909  00000-0  74948-2 0  9997
2 44507  66.0068 248.2368 0134642  95.7750 265.8636 12.87578271275855
Epoch: 2025-07-02T13:22Z
TLE epoch observation values (Epoch: 2025-07-02T13:22:11.084Z)
Latitude
-0.00008°
Longitude
126.85412°
Altitude
1,321.918 km
Speed
7.192 km/s
True Right ascension
16h 32m 56s
True Declination
0° 00' 00"
Sunlit
Object was in full shadow at epoch
Visualization orbit readout
Latitude
14.47327°
Longitude
132.75674°
Altitude
1,292.569 km
Speed
7.221 km/s
Apparent Right ascension
18h 22m 55s
Apparent Declination
-11° 09' 25"
Sunlit
Object is in full shadow
Visualization observer readout
Local Sidereal Time
08:38:35
Azimuth
55.66° ENE
Elevation
-48.47°
Doppler factor
1
Orbital elements
Apogee altitude
1,413.222 km
Perigee altitude
1,206.201 km
Semi-major axis
7,687.848 km
Eccentricity
0.01346
Inclination
66.0068°
RAAN
248.2368°
Arg. of periapsis
95.775°
True anomaly
Unknown
Mean anomaly
265.8636°
Eccentric anomaly
Unknown
Mean motion
3.21985 °/min
Orbital period
111.81 mins
BSTAR
0.0074948
Loading maneuver chart data...
Loading SW <> Apogee altitude chart data...
Loading historical data...
Loading historical data...
Loading historical data...
Loading historical data...
Loading historical data...
Loading historical data...
Loading historical data...

ARIANE 42P DEB Visibility forecast

Observer location: undefined°, undefined°

Span
Click to sort rows by Start time (UTC) header in descending order
Start Az.
Max El. time (UTC)
Max El. Az.
Max El.
End time (UTC)
End Az.
10 mins2025-07-03 04:23:28.673Z146.616° SSE2025-07-03 04:28:28.673Z104.179° ESE19.874°2025-07-03 04:33:28.673Z60.988° ENE
14 mins2025-07-03 06:16:28.673Z216.652° SW2025-07-03 06:22:28.673Z267.684° W43.769°2025-07-03 06:30:28.673Z27.676° NE
9 mins2025-07-03 08:15:28.673Z287.437° WNW2025-07-03 08:19:28.673Z323.285° NNW18.505°2025-07-03 08:24:28.673Z6.648° NNE
4 mins2025-07-03 12:16:28.673Z11.454° NNE2025-07-03 12:18:28.673Z28.283° NE12.69°2025-07-03 12:20:28.673Z44.828° NE
12 mins2025-07-03 14:10:28.673Z346.561° N2025-07-03 14:15:28.673Z46.646° ENE35.642°2025-07-03 14:22:28.673Z122.226° SE
12 mins2025-07-03 16:05:28.673Z309.092° NW2025-07-03 16:10:28.673Z256.154° W31.805°2025-07-03 16:17:28.673Z186.61° SSW
|